[[{"header":{"parameterUnit":"m.s-1","parameterCategory":1,"la1":30.2991,"la2":30.254,"lo1":-89.0895,"lo2":-89.0444,"dy":0.0017,"dx":0.0017,"nx":28,"ny":28,"refTime":"2024-03-17T09:00:00:Z","depth":0,"parameterNumber":2,"parameterNumberName":"U-component_of_WINDS"},"data":[0,0,0,0,0,0,0,0,0,0,0,0,0,0,0,0,0,0,0,0,0,0,0,0,0,0,0,0,0,0,0,0,0,0,0,0,0,0,0,0,0,0,0,0,0,0,0,0,0,0,0,0,0,0,0,0,0,0,-1.241,-1.2412,0,-1.2613,-1.2615,-1.2617,-1.2629,-1.2627,-1.2625,-1.2623,-1.2838,-1.2845,-1.2853,0,0,0,0,0,0,0,0,0,0,0,0,0,-1.204,-1.2047,-1.241,-1.2413,-1.2415,-1.2612,-1.2615,-1.2618,-1.263,-1.2627,-1.2624,-1.2621,-1.2835,-1.2844,-1.2854,0,0,0,0,0,0,0,0,0,0,0,0,0,-1.2218,-1.2049,-1.241,-1.2445,-1.245,-1.2612,-1.2615,-1.2619,-1.263,-1.2627,-1.2623,-1.262,-1.2832,-1.2844,-1.2855,-1.2999,0,0,-1.2892,-1.2897,0,0,0,0,0,0,0,0,-1.2208,-1.2231,-1.2437,-1.2442,-1.2449,-1.2592,-1.2564,-1.2746,-1.2631,-1.2562,-1.2622,-1.2618,-1.2759,-1.2777,-1.2823,-1.3009,-1.3018,-1.2893,-1.29,-1.2905,-1.2908,0,0,0,0,0,0,0,-1.2195,-1.2223,-1.2491,-1.244,-1.2447,-1.2452,-1.2474,-1.2598,-1.2678,-1.2568,-1.2569,-1.2593,-1.2762,-1.2811,-1.2828,-1.3021,-1.2892,-1.2903,-1.291,-1.2915,-1.3336,-1.334,0,0,0,0,0,0,-1.2175,-1.2212,-1.2484,-1.2497,-1.2317,-1.2462,-1.2486,-1.255,-1.2677,-1.2693,-1.2595,-1.2592,-1.2793,-1.2814,-1.2836,-1.3014,-1.2905,-1.2916,-1.2923,-1.3332,-1.3337,-1.3341,0,0,0,0,0,0,-1.2167,-1.2199,-1.2476,-1.2355,-1.239,-1.2472,-1.2544,-1.2556,-1.2605,-1.2697,-1.2712,-1.2631,-1.2791,-1.2819,-1.2958,-1.3021,-1.2921,-1.2932,-1.3327,-1.3334,-1.3339,-1.3369,0,0,0,0,0,0,-1.2157,-1.2196,-1.225,-1.2356,-1.2397,-1.2593,-1.2547,-1.2562,-1.2625,-1.2623,-1.2735,-1.275,-1.279,-1.294,-1.297,-1.3036,-1.2941,-1.3322,-1.333,-1.3337,-1.3363,-1.3375,-1.3386,0,0,0,0,0,-1.2143,-1.2252,-1.2253,-1.2286,-1.2465,-1.2596,-1.262,-1.2662,-1.2629,-1.2686,-1.2745,-1.2747,-1.3008,-1.2954,-1.2988,-1.3058,-1.3318,-1.3328,-1.3337,-1.3358,-1.3373,-1.3386,0,0,0,0,0,0,-1.2155,-1.2267,-1.2269,-1.2414,-1.2495,-1.2598,-1.267,-1.2677,-1.2771,-1.2765,-1.2815,-1.2841,-1.2978,-1.3032,-1.2969,-1.3204,-1.316,-1.3176,-1.3165,-1.318,-1.3191,-1.3177,-1.2951,0,0,0,0,0,-1.2173,-1.2268,-1.2362,-1.2481,-1.2521,-1.2588,-1.2647,-1.2672,-1.2759,-1.2794,-1.2864,-1.295,-1.3052,-1.3118,-1.3217,-1.3369,-1.3395,-1.3434,-1.3446,-1.3455,-1.347,-1.3556,-1.3575,-1.3372,-1.3372,-1.3371,0,0,-1.2215,-1.2288,-1.2345,-1.2485,-1.2551,-1.265,-1.2618,-1.2724,-1.2799,-1.2811,-1.2947,-1.3,-1.31,-1.3246,-1.3314,-1.3295,-1.3531,-1.3467,-1.3473,-1.3483,-1.3567,-1.3586,-1.3603,-1.3378,-1.3377,-1.3376,0,0,-1.2341,-1.2404,-1.2512,-1.2577,-1.2676,-1.272,-1.2745,-1.2847,-1.2882,-1.3018,-1.3029,-1.312,-1.3294,-1.3365,-1.3424,-1.3575,-1.3581,-1.3606,-1.3668,-1.3752,-1.3768,-1.3782,-1.3839,-1.3858,-1.3619,-1.3619,-1.362,0,-1.2381,-1.2529,-1.2567,-1.2673,-1.2735,-1.2747,-1.2858,-1.292,-1.3047,-1.3091,-1.3067,-1.3285,-1.3353,-1.3517,-1.3554,-1.36,-1.3633,-1.3595,-1.3762,-1.3777,-1.3791,-1.3845,-1.3866,-1.3622,-1.3622,-1.3621,-1.3621,0,-1.2574,-1.2676,-1.2751,-1.2871,-1.2941,-1.3049,-1.3105,-1.3172,-1.319,-1.3237,-1.3376,-1.3457,-1.3573,-1.3613,-1.3633,-1.3781,-1.3766,-1.3751,-1.3708,-1.3812,-1.3864,-1.3885,-1.3626,-1.3625,-1.3624,-1.3623,0,0,-1.2717,-1.2853,-1.2881,-1.2936,-1.3044,-1.3126,-1.3234,-1.3345,-1.3402,-1.3489,-1.3583,-1.3729,-1.3716,-1.3782,-1.381,-1.3883,-1.4,-1.3859,-1.3863,-1.3885,-1.417,-1.4183,-1.4206,-1.4003,-1.4007,-1.401,-1.4163,0,-1.2857,-1.3048,-1.3085,-1.3252,-1.3348,-1.336,-1.3455,-1.3534,-1.358,-1.367,-1.3722,-1.3825,-1.3798,-1.3839,-1.3911,-1.397,-1.4058,-1.3959,-1.4095,-1.4099,-1.4072,-1.4233,-1.4247,-1.4387,-1.4183,-1.4186,-1.4189,0,-1.3047,-1.3136,-1.3312,-1.3408,-1.345,-1.3534,-1.3639,-1.3724,-1.3813,-1.3842,-1.3915,-1.3934,-1.405,-1.3999,-1.416,-1.4092,-1.4149,-1.4187,-1.4193,-1.421,-1.4152,-1.4257,-1.4432,-1.4455,-1.4221,-1.4218,-1.4216,0,-1.3137,-1.33,-1.3427,-1.3473,-1.3588,-1.3647,-1.3698,-1.3783,-1.3848,-1.3939,-1.3982,-1.4087,-1.4145,-1.4226,-1.4274,-1.4232,-1.4433,-1.4386,-1.4463,-1.4462,-1.4508,-1.4505,-1.4697,-1.4539,-1.4538,-1.4538,-1.4538,0,-1.3292,-1.34,-1.3469,-1.3547,-1.3669,-1.371,-1.3831,-1.3881,-1.3957,-1.4047,-1.4064,-1.4149,-1.4205,-1.4298,-1.4336,-1.4465,-1.4491,-1.4519,-1.4529,-1.452,-1.4517,-1.4561,-1.4553,-1.4544,-1.4542,-1.4541,-1.454,0,-1.3414,-1.3464,-1.3603,-1.3699,-1.3726,-1.3812,-1.3895,-1.3973,-1.4017,-1.4131,-1.4161,-1.4232,-1.4343,-1.4397,-1.4536,-1.4561,-1.4708,-1.471,-1.4678,-1.4682,-1.4757,-1.475,-1.4988,-1.5022,-1.4837,-1.4839,-1.484,0,-1.3511,-1.3594,-1.3698,-1.3758,-1.381,-1.3907,-1.3972,-1.4015,-1.4083,-1.419,-1.4256,-1.4366,-1.4457,-1.4634,-1.47,-1.4806,-1.4813,-1.4888,-1.4829,-1.4817,-1.4817,-1.4813,-1.4823,-1.49,-1.4902,-1.4903,-1.4904,0,-1.368,-1.37,-1.3791,-1.3891,-1.3967,-1.4049,-1.413,-1.4179,-1.4235,-1.431,-1.4422,-1.4493,-1.4632,-1.4743,-1.4853,-1.4908,-1.4918,-1.4921,-1.4946,-1.4939,-1.4918,-1.4933,-1.471,-1.4917,-1.4916,-1.4915,-1.4914,-1.4914,-1.3795,-1.3869,-1.3954,-1.4055,-1.4119,-1.4194,-1.4272,-1.4325,-1.4418,-1.4534,-1.4554,-1.4673,-1.4761,-1.491,-1.4968,-1.5064,-1.5048,-1.5082,-1.5091,-1.51,-1.5105,-1.4899,-1.5084,-1.5084,-1.5083,-1.5083,-1.5083,0,-1.3966,-1.402,-1.4113,-1.4224,-1.4304,-1.43,-1.4389,-1.4458,-1.4562,-1.4641,-1.473,-1.4859,-1.4966,-1.5039,-1.5148,-1.5211,-1.5218,-1.5239,-1.5236,-1.5249,-1.5112,-1.5081,-1.5231,-1.5231,-1.5231,-1.5231,-1.5231,-1.5231,-1.4065,-1.4192,-1.4221,-1.4381,-1.4435,-1.455,-1.4601,-1.4671,-1.4735,-1.4877,-1.4965,-1.5011,-1.5089,-1.5203,-1.5302,-1.5321,-1.5362,-1.5384,-1.5403,-1.5274,-1.5259,-1.5244,-1.5216,-1.5391,-1.5391,-1.5533,-1.5534,-1.5535]},{"header":{"parameterUnit":"m.s-1","parameterCategory":1,"la1":30.2991,"la2":30.254,"lo1":-89.0895,"lo2":-89.0444,"dy":0.0017,"dx":0.0017,"nx":28,"ny":28,"refTime":"2024-03-17T09:00:00:Z","depth":0,"parameterNumber":3,"parameterNumberName":"V-component_of_WINDS"},"data":[0,0,0,0,0,0,0,0,0,0,0,0,0,0,0,0,0,0,0,0,0,0,0,0,0,0,0,0,0,0,0,0,0,0,0,0,0,0,0,0,0,0,0,0,0,0,0,0,0,0,0,0,0,0,0,0,0,0,-6.4062,-6.4063,0,-6.4175,-6.4177,-6.4178,-6.406,-6.4055,-6.4051,-6.4046,-6.416,-6.4167,-6.4174,0,0,0,0,0,0,0,0,0,0,0,0,0,-6.374,-6.3747,-6.4062,-6.4064,-6.4065,-6.4175,-6.4177,-6.4178,-6.4061,-6.4055,-6.4049,-6.4044,-6.4158,-6.4166,-6.4175,0,0,0,0,0,0,0,0,0,0,0,0,0,-6.3869,-6.3749,-6.4062,-6.402,-6.4017,-6.4175,-6.4177,-6.4179,-6.4062,-6.4055,-6.4048,-6.4042,-6.4155,-6.4165,-6.4176,-6.4381,0,0,-6.4209,-6.4214,0,0,0,0,0,0,0,0,-6.3862,-6.3881,-6.4024,-6.4023,-6.402,-6.4096,-6.4105,-6.4246,-6.4063,-6.4045,-6.4046,-6.4038,-6.4144,-6.4156,-6.4192,-6.4386,-6.4391,-6.421,-6.4217,-6.4222,-6.4225,0,0,0,0,0,0,0,-6.3853,-6.3876,-6.4107,-6.4027,-6.4024,-6.3994,-6.4004,-6.4131,-6.4131,-6.4046,-6.4037,-6.4053,-6.4142,-6.4182,-6.4194,-6.4393,-6.421,-6.422,-6.4227,-6.4231,-6.4759,-6.4766,0,0,0,0,0,0,-6.385,-6.3869,-6.4103,-6.411,-6.3923,-6.4005,-6.4017,-6.4079,-6.413,-6.4131,-6.4058,-6.4047,-6.4166,-6.4181,-6.4197,-6.444,-6.4222,-6.4232,-6.4238,-6.4751,-6.476,-6.4769,0,0,0,0,0,0,-6.3843,-6.3872,-6.4099,-6.3988,-6.4014,-6.4018,-6.4088,-6.4085,-6.4124,-6.4139,-6.4138,-6.4099,-6.4161,-6.4182,-6.4336,-6.4442,-6.4237,-6.4247,-6.4743,-6.4754,-6.4765,-6.4927,0,0,0,0,0,0,-6.3834,-6.387,-6.3949,-6.399,-6.4021,-6.4237,-6.4095,-6.4092,-6.4144,-6.413,-6.4178,-6.4179,-6.4158,-6.432,-6.4347,-6.4453,-6.4255,-6.4733,-6.4748,-6.4761,-6.4912,-6.4942,-6.4968,0,0,0,0,0,-6.3823,-6.399,-6.3954,-6.3982,-6.4119,-6.4244,-6.4261,-6.4234,-6.4153,-6.4232,-6.4241,-6.4177,-6.4426,-6.4337,-6.4366,-6.4477,-6.4726,-6.4744,-6.476,-6.49,-6.4937,-6.4968,0,0,0,0,0,0,-6.3961,-6.3995,-6.3955,-6.414,-6.419,-6.4223,-6.4322,-6.4274,-6.4347,-6.4331,-6.4293,-6.4305,-6.4468,-6.4488,-6.4388,-6.4677,-6.4563,-6.4586,-6.4659,-6.4694,-6.4722,-6.4714,-6.4264,0,0,0,0,0,-6.4012,-6.4112,-6.4135,-6.4296,-6.4323,-6.4319,-6.4372,-6.4347,-6.4397,-6.4417,-6.4437,-6.4488,-6.4576,-6.4636,-6.4719,-6.4914,-6.4922,-6.5004,-6.5032,-6.5055,-6.5076,-6.518,-6.5217,-6.4824,-6.4824,-6.4823,0,0,-6.4121,-6.4151,-6.4216,-6.4325,-6.436,-6.4463,-6.4337,-6.4451,-6.4526,-6.4434,-6.4581,-6.4598,-6.4651,-6.4826,-6.4904,-6.4847,-6.5186,-6.5077,-6.5095,-6.5104,-6.5201,-6.5238,-6.5271,-6.4835,-6.4833,-6.4831,0,0,-6.437,-6.4404,-6.4541,-6.4579,-6.4635,-6.4631,-6.4664,-6.4705,-6.4713,-6.486,-6.4792,-6.488,-6.5035,-6.5075,-6.5116,-6.5379,-6.5323,-6.5407,-6.5554,-6.5655,-6.5686,-6.5713,-6.5807,-6.5841,-6.5427,-6.5428,-6.5428,0,-6.4497,-6.465,-6.4618,-6.4737,-6.4786,-6.4707,-6.4845,-6.4883,-6.4963,-6.4999,-6.4933,-6.5125,-6.5155,-6.5339,-6.5403,-6.5439,-6.5474,-6.5402,-6.5684,-6.5711,-6.5736,-6.5825,-6.5861,-6.5438,-6.5437,-6.5436,-6.5435,0,-6.4804,-6.491,-6.5014,-6.5094,-6.5155,-6.5283,-6.5269,-6.5334,-6.5303,-6.5305,-6.5455,-6.5488,-6.5576,-6.5617,-6.5588,-6.5796,-6.5759,-6.569,-6.5574,-6.5784,-6.5867,-6.5901,-6.5452,-6.5448,-6.5445,-6.5443,0,0,-6.5145,-6.5204,-6.5243,-6.5278,-6.5333,-6.5414,-6.5537,-6.5624,-6.568,-6.5737,-6.5839,-6.5971,-6.5908,-6.5954,-6.5928,-6.6017,-6.6223,-6.5937,-6.5937,-6.5989,-6.6454,-6.6507,-6.6547,-6.6186,-6.6192,-6.6197,-6.645,0,-6.5395,-6.5611,-6.5585,-6.5791,-6.5889,-6.5814,-6.5921,-6.5966,-6.5971,-6.6053,-6.6057,-6.6151,-6.606,-6.6087,-6.6172,-6.618,-6.6316,-6.6161,-6.628,-6.6284,-6.627,-6.659,-6.6646,-6.6883,-6.6482,-6.6487,-6.6491,0,-6.5718,-6.5787,-6.6003,-6.6042,-6.6082,-6.618,-6.6256,-6.6336,-6.6384,-6.6381,-6.6433,-6.6391,-6.6513,-6.6394,-6.6562,-6.6457,-6.6503,-6.6514,-6.6523,-6.6534,-6.6402,-6.661,-6.6958,-6.6994,-6.6542,-6.6538,-6.6534,0,-6.5945,-6.6092,-6.624,-6.6272,-6.6322,-6.6392,-6.6415,-6.6457,-6.651,-6.6576,-6.661,-6.669,-6.6733,-6.6795,-6.6775,-6.669,-6.6947,-6.6826,-6.6947,-6.6948,-6.7005,-6.7002,-6.7367,-6.7035,-6.7034,-6.7033,-6.7033,0,-6.6229,-6.6364,-6.6343,-6.6435,-6.6583,-6.655,-6.6698,-6.6712,-6.6749,-6.6841,-6.678,-6.6867,-6.6835,-6.692,-6.6904,-6.7045,-6.7065,-6.7065,-6.706,-6.7072,-6.7072,-6.7102,-6.7085,-6.7043,-6.7041,-6.7039,-6.7037,0,-6.6509,-6.65,-6.6657,-6.669,-6.6702,-6.681,-6.6837,-6.6923,-6.6921,-6.7038,-6.7064,-6.7062,-6.7159,-6.7144,-6.7251,-6.7241,-6.7416,-6.739,-6.7401,-6.7395,-6.7517,-6.7506,-6.7914,-6.7966,-6.76,-6.7603,-6.7606,0,-6.6691,-6.6793,-6.6838,-6.6895,-6.6924,-6.7017,-6.7071,-6.7042,-6.71,-6.7162,-6.724,-6.7331,-6.7402,-6.7559,-6.7567,-6.7648,-6.7624,-6.7761,-6.7636,-6.7644,-6.7626,-6.7621,-6.7631,-6.7787,-6.7791,-6.7794,-6.7797,0,-6.7015,-6.7006,-6.7087,-6.7166,-6.7233,-6.7294,-6.7348,-6.7398,-6.7374,-6.7443,-6.7541,-6.7596,-6.7705,-6.7796,-6.7872,-6.7894,-6.7842,-6.7836,-6.7869,-6.7882,-6.7884,-6.7885,-6.7469,-6.7827,-6.7824,-6.7822,-6.7821,-6.7819,-6.7252,-6.7339,-6.7384,-6.7476,-6.7514,-6.7566,-6.7648,-6.7657,-6.7739,-6.7826,-6.7803,-6.7914,-6.7958,-6.8054,-6.8085,-6.817,-6.8119,-6.8166,-6.8178,-6.819,-6.8205,-6.787,-6.8184,-6.8183,-6.8182,-6.8181,-6.818,0,-6.7574,-6.7598,-6.7683,-6.7762,-6.7834,-6.7778,-6.7835,-6.7899,-6.7998,-6.8043,-6.8115,-6.8227,-6.8314,-6.8329,-6.8411,-6.8477,-6.8455,-6.85,-6.8495,-6.8501,-6.8246,-6.821,-6.8516,-6.8516,-6.8516,-6.8516,-6.8516,-6.8516,-6.775,-6.7894,-6.789,-6.8052,-6.8074,-6.8184,-6.8221,-6.8269,-6.8305,-6.8433,-6.8506,-6.8515,-6.8547,-6.8632,-6.8709,-6.871,-6.8744,-6.8798,-6.8791,-6.8552,-6.8519,-6.8487,-6.8453,-6.8806,-6.8806,-6.9039,-6.9041,-6.9043]}]]